Massena, NY

12:22 AM EST on December 10, 2019 (GMT -0500)
Massena International-Richards

Weather History for KMSS - November, 2019

Change the Weather History Date:

Tuesday, November 12, 2019

  Actual Average Record
Temperature  
Mean Temperature 16 °F 37 °F  
Max Temperature 21 °F 45 °F 75 °F (2012)
Min Temperature 11 °F 29 °F 11 °F (2019)
Degree Days  
Heating Degree Days 49 28  
Month to date heating degree days 380 314  
Since 1 July heating degree days 1089 1195  
Cooling Degree Days 0 0  
Month to date cooling degree days 0 0  
Year to date cooling degree days 398 363  
Moisture  
Dew Point 12 °F    
Average Humidity 70    
Maximum Humidity 84    
Minimum Humidity 56    
Precipitation  
Precipitation 0.09 in 0.10 in 0.55 in (1970)
Month to date precipitation 0.68 1.26  
Year to date precipitation 32.21 30.76  
Sea Level Pressure  
Sea Level Pressure 30.01 in    
Wind  
Wind Speed 14 mph (NW)    
Max Wind Speed 29 mph    
Max Gust Speed 39 mph    
Visibility 5 miles    
Events Snow    
T = Trace of Precipitation, MM = Missing Value Source: NWS Daily Summary

Daily Weather History Graph

Daily Weather History Graph

Search for Another Location

Airport or City:

Astronomy

Nov. 12, 2019 Rise Set
Actual Time 6:52 AM EST 4:34 PM EST
Civil Twilight 6:21 AM EST 5:05 PM EST
Nautical Twilight 5:45 AM EST 5:40 PM EST
Astronomical Twilight 5:11 AM EST 6:15 PM EST
Moon 5:01 PM EST (11/12) 6:39 AM EST (11/12)
Length of Visible Light 10h 44m
Length of Day
9h 41m
Full, 100% of the Moon is Illuminated
Nov 12
Full
Nov 19
Last Quarter
Nov 26
New
Dec 4
First Quarter
Dec 12
Full

Hourly Weather History & Observations

Time (EST) Temp. Windchill Dew Point Humidity Pressure Visibility Wind Dir Wind Speed Gust Speed Precip Events Conditions
12:50 AM 19.4 °F 7.2 °F 15.8 °F 86% 29.99 in 1.5 mi NNE 11.5 mph - 0.02 in Snow Light Snow
12:53 AM 19.9 °F 7.9 °F 16.0 °F 85% 30.01 in 1.5 mi NNE 11.5 mph - 0.02 in Snow Light Snow
1:03 AM 19.9 °F 4.8 °F 16.0 °F 85% 29.98 in 1.2 mi NNE 18.4 mph 21.9 mph 0.00 in Snow Light Snow
1:16 AM 19.9 °F 5.2 °F 15.1 °F 81% 29.98 in 0.8 mi NNE 17.3 mph - 0.00 in Snow Light Snow
1:25 AM 19.9 °F 7.9 °F 16.0 °F 85% 29.98 in 0.8 mi NNE 11.5 mph - 0.01 in Snow Light Snow
1:29 AM 19.9 °F 7.3 °F 16.0 °F 85% 29.98 in 1.0 mi North 12.7 mph 20.7 mph 0.01 in Snow Light Snow
1:48 AM 19.4 °F 5.5 °F 15.8 °F 86% 29.96 in 0.8 mi North 15.0 mph - 0.01 in Snow Light Snow
1:53 AM 19.9 °F 6.7 °F 15.1 °F 81% 29.99 in 0.8 mi NNE 13.8 mph - 0.01 in Snow Light Snow
2:48 AM 19.4 °F 7.2 °F 15.8 °F 86% 29.95 in 1.0 mi North 11.5 mph - 0.02 in Snow Light Snow
2:53 AM 19.9 °F 8.6 °F 15.1 °F 81% 29.98 in 1.0 mi North 10.4 mph - 0.02 in Snow Light Snow
3:53 AM 19.9 °F 8.6 °F 15.1 °F 81% 29.96 in 1.2 mi North 10.4 mph - 0.02 in Snow Light Snow
4:00 AM 19.9 °F 9.3 °F 15.1 °F 81% 29.94 in 1.5 mi North 9.2 mph - 0.00 in Snow Light Snow
4:30 AM 19.9 °F 10.1 °F 15.1 °F 81% 29.94 in 1.2 mi North 8.1 mph - 0.01 in Snow Light Snow
4:40 AM 19.9 °F 10.1 °F 16.0 °F 85% 29.94 in 1.5 mi NNW 8.1 mph - 0.01 in Snow Light Snow
4:53 AM 19.9 °F 9.3 °F 15.1 °F 81% 29.96 in 1.5 mi NNW 9.2 mph - 0.01 in Snow Light Snow
5:29 AM 19.9 °F 8.6 °F 15.1 °F 81% 29.94 in 2.0 mi NNW 10.4 mph - 0.00 in Snow Light Snow
5:48 AM 19.4 °F 8.6 °F 15.8 °F 86% 29.94 in 1.8 mi NNW 9.2 mph - 0.00 in Snow Light Snow
5:53 AM 19.9 °F 8.6 °F 15.1 °F 81% 29.96 in 1.5 mi NW 10.4 mph 18.4 mph 0.00 in Snow Light Snow
6:19 AM 19.9 °F 8.6 °F 15.1 °F 81% 29.94 in 2.5 mi NW 10.4 mph - 0.00 in Snow Light Snow
6:39 AM 19.9 °F 9.3 °F 15.1 °F 81% 29.94 in 1.5 mi NW 9.2 mph 19.6 mph 0.01 in Snow Light Snow
6:50 AM 19.4 °F 7.9 °F 15.8 °F 86% 29.94 in 3.0 mi WNW 10.4 mph - 0.01 in Snow Light Snow
6:53 AM 19.9 °F 10.1 °F 15.1 °F 81% 29.97 in 3.0 mi NW 8.1 mph - 0.01 in Snow Light Snow
7:04 AM 19.9 °F 7.3 °F 14.0 °F 78% 29.95 in 5.0 mi NW 12.7 mph - 0.00 in Snow Light Snow
7:23 AM 19.0 °F 6.8 °F 14.0 °F 81% 29.95 in 5.0 mi NW 11.5 mph - 0.00 in Snow Light Snow
7:53 AM 19.0 °F 7.5 °F 12.9 °F 77% 29.99 in 6.0 mi NW 10.4 mph - 0.00 in Snow Light Snow
8:53 AM 19.9 °F 9.3 °F 12.9 °F 74% 30.00 in 9.0 mi WNW 9.2 mph - 0.00 in Snow Light Snow
9:53 AM 19.9 °F 7.9 °F 12.9 °F 74% 30.02 in 4.0 mi WNW 11.5 mph - 0.00 in Snow Light Snow
10:21 AM 19.9 °F 7.3 °F 12.9 °F 74% 29.99 in 2.5 mi West 12.7 mph - 0.00 in Snow Light Snow
10:33 AM 19.9 °F 6.2 °F 12.9 °F 74% 30.00 in 3.0 mi West 15.0 mph - 0.00 in Snow Light Snow
10:53 AM 19.9 °F 6.2 °F 12.0 °F 71% 30.02 in 7.0 mi West 15.0 mph - 0.00 in Snow Light Snow
11:53 AM 19.9 °F 5.7 °F 10.9 °F 68% 30.03 in 10.0 mi West 16.1 mph - 0.00 in   Overcast
12:53 PM 19.0 °F 4.0 °F 9.0 °F 65% 30.03 in 10.0 mi West 17.3 mph 25.3 mph 0.00 in   Mostly Cloudy
1:21 PM 19.9 °F 4.8 °F 9.0 °F 62% 30.01 in 10.0 mi West 18.4 mph 28.8 mph N/A   Scattered Clouds
1:53 PM 19.9 °F 5.2 °F 9.0 °F 62% 30.04 in 10.0 mi WNW 17.3 mph - N/A   Partly Cloudy
2:53 PM 19.9 °F 4.3 °F 7.0 °F 57% 30.06 in 10.0 mi West 19.6 mph 27.6 mph N/A   Mostly Cloudy
3:03 PM 19.0 °F 4.5 °F 6.1 °F 57% 30.04 in 10.0 mi West 16.1 mph 25.3 mph N/A   Mostly Cloudy
3:53 PM 18.0 °F 3.1 °F 6.1 °F 60% 30.09 in 10.0 mi West 16.1 mph 26.5 mph N/A   Mostly Cloudy
4:53 PM 17.1 °F 0.1 °F 3.9 °F 56% 30.11 in 10.0 mi West 20.7 mph 32.2 mph N/A   Mostly Cloudy
5:53 PM 16.0 °F 0.1 °F 3.0 °F 57% 30.12 in 10.0 mi West 17.3 mph 29.9 mph N/A   Mostly Cloudy
6:53 PM 15.1 °F 0.5 °F 3.0 °F 59% 30.13 in 10.0 mi West 13.8 mph - N/A   Partly Cloudy
7:53 PM 14.0 °F -2.0 °F 3.9 °F 64% 30.14 in 10.0 mi West 16.1 mph - N/A   Clear
8:53 PM 12.9 °F -3.4 °F 3.9 °F 67% 30.16 in 10.0 mi West 16.1 mph 23.0 mph N/A   Clear
9:53 PM 12.0 °F -2.7 °F 3.0 °F 67% 30.16 in 10.0 mi West 12.7 mph - N/A   Clear
10:53 PM 10.9 °F -5.4 °F 3.0 °F 70% 30.17 in 10.0 mi West 15.0 mph 21.9 mph N/A   Clear
11:53 PM 10.9 °F -5.9 °F 1.9 °F 67% 30.18 in 10.0 mi West 16.1 mph 20.7 mph N/A   Clear